Date_and_time,latitude,longitude,wind_speed,RelWindDirFrom,WindDirFrom,air_pressure,air_temperature,relative_humidity,Temp,platform_speed_wrt_ground,air_pressure_at_mean_sea_level,platform_orientation
2018-08-10 23:40,53.37524,-98.3878033333333,6.7,7.6,195,985.13,24.5,78,20.62,0.0,1010.66,301.8
2018-08-10 23:50,53.3752383333333,-98.3878483333333,6.7,7.4,193,985.15,24.3,80,20.54,0.0,1010.67,301.8
2018-08-11 00:00,53.3739666666667,-98.3622716666667,7.4,14.0,158,985.07,24.3,83,20.75,5.5,1010.59,304.5
2018-08-11 00:10,53.378305,-98.310475,10.4,11.2,130,985.03,23.9,87,20.74,11.2,1010.55,304.5
2018-08-11 00:20,53.3823033333333,-98.25872,10.5,11.0,127,985.01,23.5,88,20.75,11.2,1010.54,304.5
2018-08-11 00:30,53.386035,-98.20709,10.4,11.5,121,984.90,23.0,94,21.07,11.2,1010.46,304.5
2018-08-11 00:40,53.3896283333333,-98.1553383333333,11.3,12.3,123,984.83,22.8,97,20.77,11.2,1010.38,304.5
2018-08-11 00:50,53.393425,-98.103935,10.7,12.4,122,984.82,22.6,99,20.97,11.1,1010.38,304.5
2018-08-11 01:00,53.3979366666667,-98.0524983333333,12.2,13.1,124,984.79,22.3,100,20.98,11.2,1010.35,60.0
2018-08-11 01:10,53.40359,-98.001355,10.6,12.1,140,984.87,22.6,88,20.92,11.2,1010.41,60.0
2018-08-11 01:20,53.4048033333333,-97.97473,7.0,9.9,158,984.93,22.9,85,21.47,5.7,1010.46,60.0
2018-08-11 01:30,53.4053183333333,-97.9748816666667,5.4,7.1,190,985.02,22.4,88,21.00,0.2,1010.59,60.0
2018-08-11 01:40,53.40534,-97.9749366666667,6.0,8.0,193,985.05,22.8,85,20.71,0.0,1010.61,60.0
2018-08-11 01:50,53.4053283333333,-97.97481,7.0,8.2,201,985.04,22.7,84,21.23,0.0,1010.60,60.0
2018-08-11 02:00,53.4053483333333,-97.9749033333333,6.7,8.4,188,985.08,22.6,88,21.38,0.0,1010.66,81.7
2018-08-11 02:10,53.4053533333333,-97.9749583333333,6.2,6.6,170,985.15,22.1,96,21.47,0.0,1010.77,81.7
2018-08-11 02:20,53.4053516666667,-97.9749716666667,6.5,7.1,171,985.19,21.9,99,21.49,0.0,1010.84,81.7
2018-08-11 02:30,53.4053566666667,-97.97491,7.8,8.6,184,985.20,21.9,97,21.50,0.0,1010.86,81.7
2018-08-11 02:40,53.4053583333333,-97.9748683333333,9.0,9.6,193,985.19,22.1,93,21.47,0.0,1010.85,81.7
2018-08-11 02:50,53.40535,-97.9747866666667,9.2,10.3,199,985.17,22.2,93,21.50,0.0,1010.85,81.7
2018-08-11 03:00,53.4053633333333,-97.9748233333333,10.1,11.1,200,985.10,22.1,92,21.49,0.0,1010.76,82.1
2018-08-11 03:10,53.4053733333333,-97.9748266666667,10.2,11.0,199,985.04,22.2,92,21.46,0.0,1010.68,82.1
2018-08-11 03:20,53.4053733333333,-97.9748283333333,10.0,11.0,197,985.01,22.2,92,21.40,0.0,1010.68,82.1
2018-08-11 03:30,53.4053766666667,-97.9748316666667,10.8,11.9,197,984.96,22.3,88,21.39,0.0,1010.61,82.1
2018-08-11 03:40,53.4053766666667,-97.9748283333333,10.8,11.7,198,984.92,22.4,84,21.36,0.0,1010.56,82.1
2018-08-11 03:50,53.4053783333333,-97.9748333333333,10.6,11.4,195,984.93,22.5,83,21.31,0.0,1010.57,82.1
2018-08-11 04:00,53.4053783333333,-97.974835,11.0,12.0,196,984.89,22.4,82,21.27,0.0,1010.55,80.8
2018-08-11 04:10,53.4053833333333,-97.9748366666667,11.3,12.4,197,984.91,22.5,80,21.23,0.0,1010.58,80.8
2018-08-11 04:20,53.4053816666667,-97.97481,11.0,12.4,197,984.91,22.5,81,21.18,0.0,1010.58,80.8
2018-08-11 04:30,53.4053933333333,-97.97486,10.5,11.2,195,984.88,22.3,82,21.12,0.0,1010.55,80.8
2018-08-11 04:40,53.405395,-97.97486,10.5,11.6,194,984.84,22.3,84,21.07,0.0,1010.50,80.8
2018-08-11 04:50,53.4053983333333,-97.9748566666667,11.0,12.4,194,984.76,22.2,86,21.01,0.0,1010.43,80.8
2018-08-11 05:00,53.4054,-97.9748583333333,11.0,12.1,193,984.69,22.1,88,20.97,0.0,1010.36,24.7
2018-08-11 05:10,53.4054016666667,-97.974875,10.6,11.6,192,984.66,22.0,89,20.94,0.0,1010.33,24.7
2018-08-11 05:20,53.4054016666667,-97.9748716666667,10.4,11.5,192,984.61,22.0,88,20.91,0.0,1010.28,24.7
2018-08-11 05:30,53.4054016666667,-97.9748766666667,10.7,11.5,189,984.52,22.0,88,20.87,0.0,1010.17,24.7
2018-08-11 05:40,53.4054016666667,-97.9748783333333,11.1,12.0,190,984.43,22.0,87,20.84,0.0,1010.08,24.7
2018-08-11 05:50,53.4054166666667,-97.97489,11.7,12.7,192,984.38,22.1,83,20.81,0.0,1010.03,24.7
2018-08-11 06:00,53.405425,-97.9748533333333,12.0,13.0,192,984.31,22.3,79,20.77,0.0,1009.95,352.3
2018-08-11 06:10,53.40545,-97.974865,12.2,13.9,190,984.20,22.5,75,20.73,0.0,1009.83,352.3
2018-08-11 06:20,53.4054716666667,-97.9748966666667,12.1,13.7,190,984.22,22.5,74,20.71,0.0,1009.85,352.3
2018-08-11 06:30,53.40548,-97.9749033333333,12.5,13.7,190,984.18,22.5,73,20.69,0.0,1009.82,352.3
2018-08-11 06:40,53.405495,-97.9749233333333,12.7,14.2,190,984.09,22.5,72,20.65,0.0,1009.73,352.3
2018-08-11 06:50,53.4054933333333,-97.9750166666667,12.7,14.2,187,984.02,22.4,73,20.62,0.0,1009.66,352.3
2018-08-11 07:00,53.4055066666667,-97.975,12.2,13.7,186,983.93,22.2,77,20.58,0.0,1009.58,322.1
2018-08-11 07:10,53.4055016666667,-97.97501,11.8,13.1,183,983.87,22.0,80,20.55,0.0,1009.53,322.1
2018-08-11 07:20,53.4054966666667,-97.9749633333333,12.1,13.3,183,983.77,21.8,83,20.51,0.0,1009.44,322.1
2018-08-11 07:30,53.4054916666667,-97.97494,12.3,13.7,186,983.69,21.8,84,20.48,0.0,1009.35,322.1
2018-08-11 07:40,53.4054983333333,-97.97497,12.7,13.8,186,983.54,21.7,86,20.45,0.0,1009.20,322.1
2018-08-11 07:50,53.4055116666667,-97.9749933333333,12.9,14.5,187,983.48,21.6,88,20.44,0.0,1009.14,322.1
2018-08-11 08:00,53.405535,-97.9750233333333,13.5,15.2,186,983.32,21.6,88,20.41,0.0,1008.96,326.1
2018-08-11 08:10,53.4055666666667,-97.97503,14.1,16.3,186,983.18,21.8,86,20.40,0.0,1008.81,326.1
2018-08-11 08:20,53.4056066666667,-97.975065,14.8,16.9,184,983.07,21.9,85,20.38,0.0,1008.70,326.1
2018-08-11 08:30,53.4056166666667,-97.9750233333333,14.7,16.6,183,982.95,21.8,84,20.37,0.0,1008.57,326.1
2018-08-11 08:40,53.405625,-97.9749783333333,14.8,16.9,184,982.88,21.9,81,20.35,0.0,1008.50,326.1
2018-08-11 08:50,53.4056183333333,-97.9749266666667,15.0,16.8,186,982.91,22.1,78,20.36,0.0,1008.53,326.1
2018-08-11 09:00,53.4056283333333,-97.9749916666667,14.7,16.2,181,982.77,22.1,77,20.36,0.0,1008.40,332.9
2018-08-11 09:10,53.4056533333333,-97.975065,14.2,17.6,183,982.79,22.0,78,20.35,0.0,1008.43,332.9
2018-08-11 09:20,53.4056633333333,-97.97504,14.7,18.5,185,982.70,22.1,76,20.33,0.0,1008.33,332.9
2018-08-11 09:30,53.405625,-97.9748466666667,15.3,18.9,190,982.73,22.1,78,20.33,0.0,1008.37,332.9
2018-08-11 09:40,53.4056433333333,-97.9748933333333,15.0,17.6,191,982.75,21.7,81,20.32,0.0,1008.42,332.9
2018-08-11 09:50,53.4056633333333,-97.9750016666667,15.3,17.5,191,982.70,21.6,82,20.32,0.0,1008.36,332.9
2018-08-11 10:00,53.4056783333333,-97.9750316666667,14.9,17.4,190,982.65,21.5,84,20.32,0.0,1008.32,360.0
2018-08-11 10:10,53.4056666666667,-97.974895,14.3,16.6,193,982.59,21.3,85,20.30,0.0,1008.25,360.0
2018-08-11 10:20,53.4056483333333,-97.97486,14.0,16.1,191,982.53,21.3,86,20.30,0.0,1008.19,360.0
2018-08-11 10:30,53.40567,-97.9749633333333,14.5,16.4,192,982.47,21.3,87,20.31,0.0,1008.13,360.0
2018-08-11 10:40,53.4056583333333,-97.9748833333333,14.5,17.1,194,982.51,21.2,88,20.31,0.0,1008.16,360.0
2018-08-11 10:50,53.4056433333333,-97.9748416666667,14.9,16.7,190,982.41,21.2,88,20.31,0.0,1008.06,360.0
2018-08-11 11:00,53.4056983333333,-97.9750216666667,14.7,17.0,190,982.41,21.2,88,20.31,0.0,1008.06,2.1
2018-08-11 11:10,53.40547,-97.97503,15.1,17.1,190,982.32,21.3,87,20.29,0.1,1007.97,2.1
2018-08-11 11:20,53.408165,-97.96954,14.2,16.9,193,982.54,21.5,86,20.30,1.5,1008.19,2.1
2018-08-11 11:30,53.410905,-97.95726,14.9,17.2,198,982.57,21.8,84,20.20,2.8,1008.21,2.1
2018-08-11 11:40,53.4132633333333,-97.9451116666667,15.5,17.4,198,982.56,22.0,82,20.05,2.7,1008.20,2.1
2018-08-11 11:50,53.4146866666667,-97.93274,15.8,17.5,193,982.55,21.9,82,19.99,2.7,1008.20,2.1
2018-08-11 12:00,53.412455,-97.908055,17.1,20.9,176,982.49,21.6,84,20.06,5.4,1008.16,80.3
2018-08-11 12:10,53.4126133333333,-97.9083,15.3,17.1,195,982.46,21.4,84,20.14,0.1,1008.14,80.3
2018-08-11 12:20,53.4125216666667,-97.9082283333333,14.2,16.1,192,982.51,21.3,86,20.14,0.0,1008.20,80.3
2018-08-11 12:30,53.4329133333333,-97.9168116666667,7.7,15.8,203,982.87,20.9,87,20.11,7.6,1008.58,80.3
2018-08-11 12:40,53.4635983333333,-97.92512,4.1,6.4,238,983.01,20.9,87,20.12,11.2,1008.73,80.3
2018-08-11 12:50,53.4945633333333,-97.9331133333333,3.3,5.8,237,982.95,21.0,87,20.13,11.3,1008.66,80.3
2018-08-11 13:00,53.5252916666667,-97.9411133333333,2.9,4.5,218,982.83,21.0,87,20.08,11.2,1008.53,9.5
2018-08-11 13:10,53.5559616666667,-97.9496316666667,3.5,5.7,213,982.68,21.0,87,20.23,11.2,1008.37,9.5
2018-08-11 13:20,53.5821016666667,-97.9578683333333,6.5,12.4,197,982.53,21.1,86,20.37,9.6,1008.20,9.5
2018-08-11 13:30,53.58971,-97.9595283333333,12.5,14.5,175,982.36,21.1,86,20.38,2.8,1008.02,9.5
2018-08-11 13:40,53.5968333333333,-97.9608866666667,12.6,14.4,175,982.41,21.5,82,20.30,2.6,1008.06,9.5
2018-08-11 13:50,53.6038883333333,-97.9630566666667,12.8,16.0,179,982.42,21.6,79,20.20,2.6,1008.08,9.5
2018-08-11 14:00,53.6160116666667,-97.9665516666667,11.5,15.8,182,982.37,21.7,79,20.19,4.4,1008.03,1.4
2018-08-11 14:10,53.617335,-97.9670733333333,15.7,18.9,184,981.98,21.8,81,20.29,0.5,1007.63,1.4
2018-08-11 14:20,53.617355,-97.9670483333333,16.7,20.3,184,981.72,21.8,81,20.31,0.0,1007.38,1.4
2018-08-11 14:30,53.617345,-97.9671383333333,16.6,19.4,178,981.66,21.7,84,20.30,0.0,1007.33,1.4
2018-08-11 14:40,53.61735,-97.967095,16.2,18.6,175,981.71,21.6,84,20.31,0.0,1007.37,1.4
2018-08-11 14:50,53.6173816666667,-97.9670733333333,16.1,18.7,174,981.59,21.7,83,20.32,0.0,1007.25,1.4
2018-08-11 15:00,53.6174066666667,-97.9670333333333,15.9,18.3,174,981.45,21.8,81,20.32,0.0,1007.10,350.3
2018-08-11 15:10,53.617435,-97.9671083333333,16.0,19.7,177,981.26,21.8,81,20.32,0.0,1006.90,350.3
2018-08-11 15:20,53.6174266666667,-97.96706,16.4,19.4,179,981.27,21.8,81,20.33,0.0,1006.90,350.3
2018-08-11 15:30,53.61746,-97.967025,16.8,19.2,177,981.20,21.8,82,20.33,0.0,1006.83,350.3
2018-08-11 15:40,53.617415,-97.967315,16.8,21.0,177,981.12,21.8,81,20.33,0.1,1006.74,350.3
2018-08-11 15:50,53.6176116666667,-97.9672066666667,17.0,19.7,170,981.20,21.9,80,20.29,0.1,1006.81,350.3
2018-08-11 16:00,53.6176383333333,-97.96727,17.5,20.1,174,980.86,21.9,80,20.33,0.0,1006.45,350.5
2018-08-11 16:10,53.6176666666667,-97.9671683333333,17.5,19.6,177,980.84,22.1,78,20.36,0.0,1006.43,350.5
2018-08-11 16:20,53.6176883333333,-97.9670633333333,16.7,20.0,186,981.13,22.2,76,20.35,0.0,1006.72,350.5
2018-08-11 16:30,53.6176866666667,-97.9671283333333,15.0,17.1,193,981.56,22.0,78,20.37,0.0,1007.18,350.5
2018-08-11 16:40,53.6175666666667,-97.96743,12.6,14.8,188,981.87,21.7,81,20.36,0.1,1007.50,350.5
2018-08-11 16:50,53.6160933333333,-97.9700016666667,12.1,16.7,198,981.80,21.6,83,20.29,0.8,1007.43,350.5
2018-08-11 17:00,53.59609,-97.9991883333333,20.4,22.6,203,981.16,21.5,83,20.32,9.5,1006.78,224.2
2018-08-11 17:10,53.578355,-98.02972,18.9,22.1,199,981.00,21.4,84,20.31,9.1,1006.61,224.2
2018-08-11 17:20,53.5560616666667,-98.0642933333333,20.7,22.0,203,980.89,21.4,85,20.22,10.9,1006.51,224.2
2018-08-11 17:30,53.5337916666667,-98.0988483333333,20.4,21.7,204,980.79,21.4,85,20.20,10.9,1006.41,224.2
2018-08-11 17:40,53.5120066666667,-98.1344416666667,18.9,20.8,210,981.04,21.4,85,20.20,10.9,1006.66,224.2
2018-08-11 17:50,53.4957033333333,-98.1759,17.8,20.1,213,980.93,21.5,86,20.14,10.6,1006.55,224.2
2018-08-11 18:00,53.48335,-98.2224916666667,17.1,18.3,215,980.82,21.4,88,20.16,10.9,1006.43,228.7
2018-08-11 18:10,53.4703183333333,-98.26863,16.9,17.9,214,980.76,21.4,90,20.24,10.9,1006.36,228.7
2018-08-11 18:20,53.4578966666667,-98.3154016666667,16.9,18.0,211,980.52,21.6,88,20.30,11.0,1006.10,228.7
2018-08-11 18:30,53.44539,-98.3622733333333,15.7,17.5,212,980.54,21.7,89,20.50,11.0,1006.14,228.7
2018-08-11 18:40,53.432035,-98.4085016666667,16.3,17.2,211,980.30,22.0,87,20.51,11.0,1005.89,228.7
2018-08-11 18:50,53.4192016666667,-98.4552866666667,16.4,18.0,211,980.10,22.4,84,20.50,11.0,1005.66,228.7
2018-08-11 19:00,53.4062066666667,-98.5020933333333,13.5,18.3,256,980.95,22.4,85,20.53,11.1,1006.54,236.6
2018-08-11 19:10,53.3931133333333,-98.5488866666667,14.8,20.9,252,980.84,23.1,79,20.59,11.1,1006.40,236.6
2018-08-11 19:20,53.3799933333333,-98.595655,17.6,19.6,270,981.35,23.2,78,20.80,11.1,1006.91,236.6
2018-08-11 19:30,53.3671,-98.6426966666667,17.6,19.7,256,981.17,23.5,74,20.85,11.1,1006.72,236.6
2018-08-11 19:40,53.354365,-98.6898,17.6,18.1,236,980.98,23.7,71,20.79,11.1,1006.52,236.6
2018-08-11 19:50,53.3416966666667,-98.7372316666667,18.1,18.8,232,980.93,23.9,68,20.77,11.2,1006.45,236.6
2018-08-11 20:00,53.3290766666667,-98.784805,19.2,20.9,252,981.23,23.9,68,20.77,11.2,1006.77,240.6
2018-08-11 20:10,53.3161316666667,-98.8320433333333,17.7,20.0,250,981.18,24.9,61,20.65,11.2,1006.66,240.6
2018-08-11 20:20,53.3030066666667,-98.8793083333333,18.5,20.7,246,981.10,25.1,61,20.78,11.2,1006.57,240.6
2018-08-11 20:30,53.2899833333333,-98.9266083333333,20.4,21.4,244,981.03,25.9,55,20.99,11.2,1006.44,240.6
2018-08-11 20:40,53.277915,-98.9674433333333,19.1,20.9,234,981.10,25.8,55,20.98,9.8,1006.50,240.6
2018-08-11 20:50,53.2740483333333,-98.9793833333333,11.4,13.3,234,981.60,26.0,55,21.20,2.9,1007.01,240.6
2018-08-11 21:00,53.2701316666667,-98.9921133333333,11.6,12.4,225,981.43,25.4,61,21.33,3.1,1006.83,245.4
2018-08-11 21:10,53.2667,-99.005145,11.1,12.4,238,981.62,24.9,66,21.34,3.1,1007.04,245.4
2018-08-11 21:20,53.2629416666667,-99.0201566666667,14.1,16.4,255,981.63,25.2,64,21.38,3.5,1007.03,245.4
2018-08-11 21:30,53.26215,-99.0252583333333,10.9,16.3,263,981.93,25.2,68,21.32,1.1,1007.33,245.4
2018-08-11 21:40,53.2621466666667,-99.025205,10.5,11.0,281,982.20,25.5,64,21.39,0.0,1007.58,245.4
2018-08-11 21:50,53.2620916666667,-99.0252583333333,9.4,9.9,289,982.38,26.5,60,21.40,0.0,1007.72,245.4
2018-08-11 22:00,53.2619616666667,-99.02538,10.5,13.6,309,982.47,26.8,59,21.41,0.1,1007.76,245.4
2018-08-11 22:10,53.2619633333333,-99.0254016666667,12.3,13.9,323,982.40,27.2,57,21.43,0.0,1007.66,245.4
2018-08-11 22:20,53.2620766666667,-99.0256483333333,10.4,12.5,324,982.45,27.5,55,21.44,0.1,1007.67,245.4
2018-08-11 22:30,53.253885,-99.0639883333333,12.6,17.0,302,982.44,26.9,59,21.49,8.8,1007.68,245.4
2018-08-11 22:40,53.242205,-99.111885,16.6,17.9,303,982.48,27.3,60,21.77,11.1,1007.70,245.4
2018-08-11 22:50,53.2303383333333,-99.1595566666667,13.1,14.5,305,982.71,26.0,67,21.81,11.1,1008.02,245.4
2018-08-11 23:00,53.2238966666667,-99.181895,11.3,13.5,341,983.03,25.7,67,21.75,5.3,1008.37,246.3
2018-08-11 23:10,53.2209933333333,-99.1926083333333,13.5,15.4,357,983.23,25.8,63,21.80,2.5,1008.57,246.3
2018-08-11 23:20,53.2187,-99.203455,13.4,14.7,360,983.47,25.7,63,21.94,2.5,1008.82,246.3
2018-08-11 23:30,53.2148066666667,-99.2192833333333,17.0,20.1,348,983.57,26.0,59,22.06,3.7,1008.90,246.3
2018-08-11 23:40,53.2126816666667,-99.2327716666667,17.1,21.2,351,983.51,26.4,52,21.74,3.0,1008.78,246.3
2018-08-11 23:50,53.2126816666667,-99.2326633333333,15.5,19.4,359,983.63,26.5,47,21.39,0.0,1008.88,246.3
